Tracking 20623 objects as of 3-Apr-2020
HD Live streaming from Space Station
objects crossing your sky now

ARIANE 5 DEB (SYLDA)

Track ARIANE 5 DEB (SYLDA) now!
10-day predictions


NORAD ID: 29164
Int'l Code: 2006-020C
Perigee: 267.7 km
Apogee: 12,352.8 km
Inclination: 6.8 °
Period: 236.9 minutes
Semi major axis: 12681 km
RCS: 17.7393 m2 (large)
Launch date: May 27, 2006
Source: France (FR)
Launch site: FRENCH GUIANA (FRGUI)

Note: This is SATELLITE DEBRIS
aabbcc
Your satellite tracking list
Your tracking list is empty




NASA's NSSDC Master Catalog

Two Line Element Set (TLE):
1 29164U 06020C   20094.45015378 +.00031145 +00000-0 +21425-2 0  9998
2 29164 006.8276 358.4270 4764978 127.6184 285.9181 06.07939563227694
Source of the keplerian elements: AFSPC